OE6JWD-11 Weather Reports


time (UTC)temp
C
wind
direction
speed
KPH
gust
KPH
rain 1hr
cm
rain 24hr
cm
rain mn
cm
humidity
%
barometer
mb
20210224232011 11 0 0.0 0.0 0.00 0.00 0.00 53 1032.8
20210224231011 11 0 0.0 0.0 0.00 0.00 0.00 53 1032.9
20210224230021 11 0 0.0 0.0 0.00 0.00 0.00 53 1032.8
20210224225013 11 0 0.0 0.0 0.00 0.00 0.00 53 1032.9
20210224224018 11 0 0.0 1.6 0.00 0.00 0.00 53 1032.7
20210224223029 11 0 0.0 1.6 0.00 0.00 0.00 53 1032.8
20210224222022 12 0 0.0 0.0 0.00 0.00 0.00 51 1032.7
20210224221022 12 0 0.0 3.2 0.00 0.00 0.00 49 1032.7
20210224220027 12 0 0.0 1.6 0.00 0.00 0.00 50 1032.8
20210224215206 12 0 0.0 0.0 0.00 0.00 0.00 50 1032.8
20210224214024 13 0 0.0 0.0 0.00 0.00 0.00 49 1032.8
20210224213022 13 0 0.0 0.0 0.00 0.00 0.00 48 1033.0
20210224212024 13 0 0.0 0.0 0.00 0.00 0.00 48 1033.1
20210224211011 12 0 0.0 0.0 0.00 0.00 0.00 48 1033.0
20210224210018 11 0 0.0 0.0 0.00 0.00 0.00 51 1033.2
20210224205049 12 0 0.0 0.0 0.00 0.00 0.00 50 1033.1
20210224204018 13 0 0.0 0.0 0.00 0.00 0.00 48 1033.0
20210224203021 12 0 0.0 0.0 0.00 0.00 0.00 48 1033.2
20210224202018 12 0 0.0 0.0 0.00 0.00 0.00 50 1033.2
20210224201022 12 0 0.0 0.0 0.00 0.00 0.00 49 1033.3
20210224200011 13 0 0.0 0.0 0.00 0.00 0.00 48 1033.2
20210224195144 12 0 0.0 0.0 0.00 0.00 0.00 49 1033.3
20210224194011 12 0 0.0 0.0 0.00 0.00 0.00 49 1033.4
20210224193023 12 0 0.0 0.0 0.00 0.00 0.00 50 1033.3
20210224192019 12 0 0.0 0.0 0.00 0.00 0.00 51 1033.5
20210224191019 12 0 0.0 0.0 0.00 0.00 0.00 51 1033.6
20210224190024 12 0 0.0 0.0 0.00 0.00 0.00 49 1033.5
20210224185320 12 0 0.0 3.2 0.00 0.00 0.00 48 1033.4
20210224184011 12 0 0.0 0.0 0.00 0.00 0.00 49 1033.7
20210224183036 12 0 0.0 0.0 0.00 0.00 0.00 48 1033.5
20210224182011 13 0 0.0 0.0 0.00 0.00 0.00 47 1033.5
20210224181012 13 0 0.0 3.2 0.00 0.00 0.00 46 1033.6
20210224180027 13 0 0.0 3.2 0.00 0.00 0.00 47 1033.7
20210224175054 13 0 0.0 3.2 0.00 0.00 0.00 48 1033.6
20210224174023 14 0 0.0 3.2 0.00 0.00 0.00 48 1033.7
20210224173019 14 0 0.0 3.2 0.00 0.00 0.00 48 1033.6
20210224172019 15 0 0.0 6.4 0.00 0.00 0.00 48 1033.7
20210224171010 15 185 3.2 6.4 0.00 0.00 0.00 47 1033.6
20210224170019 15 222 3.2 6.4 0.00 0.00 0.00 47 1033.8
20210224165059 15 228 1.6 6.4 0.00 0.00 0.00 46 1033.4
20210224164011 15 196 3.2 6.4 0.00 0.00 0.00 45 1033.6
20210224163018 15 194 1.6 6.4 0.00 0.00 0.00 44 1033.5
20210224162020 16 189 1.6 6.4 0.00 0.00 0.00 44 1033.7
20210224161021 16 192 1.6 4.8 0.00 0.00 0.00 42 1033.5
20210224160025 16 189 1.6 3.2 0.00 0.00 0.00 42 1033.7
20210224155034 16 205 1.6 6.4 0.00 0.00 0.00 42 1033.6
20210224154010 17 0 0.0 6.4 0.00 0.00 0.00 42 1033.4
20210224153018 17 0 0.0 12.9 0.00 0.00 0.00 42 1033.5
20210224152011 17 190 3.2 8.0 0.00 0.00 0.00 41 1033.7
20210224151029 17 195 4.8 8.0 0.00 0.00 0.00 40 1033.6
20210224150012 18 209 3.2 6.4 0.00 0.00 0.00 39 1033.7
20210224145200 18 189 1.6 9.7 0.00 0.00 0.00 40 1033.8
20210224144011 18 209 3.2 6.4 0.00 0.00 0.00 38 1033.5
20210224143021 18 190 1.6 8.0 0.00 0.00 0.00 37 1033.7
20210224142021 19 0 0.0 8.0 0.00 0.00 0.00 35 1033.8
20210224141023 19 197 3.2 9.7 0.00 0.00 0.00 34 1033.9
20210224140022 19 196 1.6 11.3 0.00 0.00 0.00 34 1033.8
20210224135019 19 192 3.2 11.3 0.00 0.00 0.00 34 1033.9
20210224134019 19 225 3.2 9.7 0.00 0.00 0.00 33 1034.1
20210224133045 19 193 3.2 12.9 0.00 0.00 0.00 32 1034.1
20210224132024 19 203 6.4 12.9 0.00 0.00 0.00 34 1034.2
20210224131029 20 199 3.2 11.3 0.00 0.00 0.00 32 1034.3
20210224130021 20 206 3.2 16.1 0.00 0.00 0.00 33 1034.2
20210224125257 19 193 3.2 12.9 0.00 0.00 0.00 37 1034.1
20210224124016 20 189 6.4 12.9 0.00 0.00 0.00 32 1034.3
20210224123040 20 233 3.2 8.0 0.00 0.00 0.00 33 1034.3
20210224122032 19 257 3.2 11.3 0.00 0.00 0.00 32 1034.6
20210224121019 19 207 3.2 12.9 0.00 0.00 0.00 33 1034.6
20210224120019 18 199 4.8 14.5 0.00 0.00 0.00 33 1034.6
20210224115234 19 187 4.8 14.5 0.00 0.00 0.00 34 1034.6
20210224114009 19 182 4.8 11.3 0.00 0.00 0.00 35 1034.8
20210224113017 19 215 3.2 6.4 0.00 0.00 0.00 36 1034.7
20210224112013 19 241 1.6 12.9 0.00 0.00 0.00 34 1035.0
20210224111015 19 216 3.2 6.4 0.00 0.00 0.00 37 1034.9
20210224110019 19 241 1.6 6.4 0.00 0.00 0.00 35 1035.1
20210224105053 19 241 1.6 4.8 0.00 0.00 0.00 36 1035.2
20210224104011 18 0 0.0 6.4 0.00 0.00 0.00 36 1035.2
20210224103018 18 200 1.6 8.0 0.00 0.00 0.00 36 1035.2
20210224102025 18 233 1.6 6.4 0.00 0.00 0.00 39 1035.2
20210224101019 18 198 3.2 6.4 0.00 0.00 0.00 34 1035.4
20210224100020 18 194 3.2 4.8 0.00 0.00 0.00 40 1035.3
20210224095122 17 0 0.0 0.0 0.00 0.00 0.00 39 1035.1
20210224094021 17 0 0.0 1.6 0.00 0.00 0.00 42 1035.2
20210224093026 16 0 0.0 3.2 0.00 0.00 0.00 41 1035.1
20210224092034 15 0 0.0 3.2 0.00 0.00 0.00 43 1035.4
20210224091018 15 0 0.0 0.0 0.00 0.00 0.00 43 1035.1
20210224090024 14 0 0.0 0.0 0.00 0.00 0.00 49 1035.2
20210224085139 14 0 0.0 0.0 0.00 0.00 0.00 44 1035.4
20210224084022 15 0 0.0 0.0 0.00 0.00 0.00 48 1035.3
20210224083012 15 0 0.0 0.0 0.00 0.00 0.00 41 1035.2
20210224082024 15 0 0.0 0.0 0.00 0.00 0.00 35 1035.3
20210224081022 15 0 0.0 0.0 0.00 0.00 0.00 37 1035.3
20210224080020 15 0 0.0 0.0 0.00 0.00 0.00 34 1035.5
20210224075151 14 0 0.0 1.6 0.00 0.00 0.00 35 1035.8
20210224074019 13 0 0.0 3.2 0.00 0.00 0.00 36 1035.5
20210224073020 12 0 0.0 0.0 0.00 0.00 0.00 41 1035.4
20210224072019 12 0 0.0 0.0 0.00 0.00 0.00 39 1035.4
20210224071020 12 0 0.0 0.0 0.00 0.00 0.00 39 1035.6
20210224070020 12 0 0.0 0.0 0.00 0.00 0.00 37 1035.4
20210224065245 13 0 0.0 0.0 0.00 0.00 0.00 36 1035.8
20210224064020 13 0 0.0 0.0 0.00 0.00 0.00 36 1035.6
20210224063020 13 0 0.0 0.0 0.00 0.00 0.00 34 1035.5
20210224062020 13 0 0.0 0.0 0.00 0.00 0.00 36 1035.6
20210224061022 13 0 0.0 0.0 0.00 0.00 0.00 34 1035.3
20210224060017 12 0 0.0 0.0 0.00 0.00 0.00 36 1035.3
20210224055108 11 0 0.0 0.0 0.00 0.00 0.00 37 1035.2
20210224054017 12 0 0.0 0.0 0.00 0.00 0.00 38 1035.2
20210224053022 11 0 0.0 1.6 0.00 0.00 0.00 37 1035.4
20210224052022 11 0 0.0 1.6 0.00 0.00 0.00 38 1035.3
20210224051024 12 0 0.0 1.6 0.00 0.00 0.00 40 1035.2
20210224050025 12 0 0.0 1.6 0.00 0.00 0.00 37 1035.0
20210224045032 12 0 0.0 1.6 0.00 0.00 0.00 38 1035.0
20210224044020 13 0 0.0 3.2 0.00 0.00 0.00 36 1035.2
20210224043020 12 0 0.0 3.2 0.00 0.00 0.00 37 1035.1
20210224042019 12 0 0.0 1.6 0.00 0.00 0.00 39 1035.2
20210224041020 12 0 0.0 0.0 0.00 0.00 0.00 38 1035.0
20210224040029 12 0 0.0 0.0 0.00 0.00 0.00 38 1035.2
20210224035037 12 0 0.0 0.0 0.00 0.00 0.00 39 1035.1
20210224034019 12 0 0.0 0.0 0.00 0.00 0.00 38 1035.2
20210224033022 12 0 0.0 0.0 0.00 0.00 0.00 38 1035.1
20210224032019 12 0 0.0 0.0 0.00 0.00 0.00 38 1035.2
20210224031011 12 0 0.0 1.6 0.00 0.00 0.00 39 1035.2
20210224030022 12 0 0.0 3.2 0.00 0.00 0.00 40 1035.1
20210224025141 11 0 0.0 0.0 0.00 0.00 0.00 41 1035.4
20210224024021 11 0 0.0 0.0 0.00 0.00 0.00 41 1035.3
20210224023021 12 0 0.0 1.6 0.00 0.00 0.00 41 1035.3
20210224022023 13 0 0.0 3.2 0.00 0.00 0.00 37 1035.4
20210224021023 13 0 0.0 3.2 0.00 0.00 0.00 39 1035.3
20210224020022 13 0 0.0 3.2 0.00 0.00 0.00 38 1035.2
20210224015021 13 356 1.6 3.2 0.00 0.00 0.00 37 1035.4
20210224014012 13 0 0.0 3.2 0.00 0.00 0.00 38 1035.5
20210224013024 13 0 0.0 3.2 0.00 0.00 0.00 38 1035.5
20210224012019 13 0 0.0 3.2 0.00 0.00 0.00 38 1035.7
20210224011023 13 0 0.0 3.2 0.00 0.00 0.00 38 1035.6
20210224010030 13 0 0.0 1.6 0.00 0.00 0.00 41 1035.5
20210224005114 13 0 0.0 1.6 0.00 0.00 0.00 40 1035.6
20210224004022 12 0 0.0 0.0 0.00 0.00 0.00 40 1035.7
20210224003018 12 0 0.0 0.0 0.00 0.00 0.00 42 1035.8
20210224002017 12 0 0.0 0.0 0.00 0.00 0.00 40 1035.9
20210224001024 11 0 0.0 0.0 0.00 0.00 0.00 43 1036.0
20210224000020 11 0 0.0 3.2 0.00 0.00 0.00 44 1036.0
20210223235019 12 0 0.0 3.2 0.00 0.00 0.00 46 1036.0
20210223234028 13 0 0.0 3.2 0.00 0.00 0.00 42 1035.8
20210223233021 13 0 0.0 4.8 0.00 0.00 0.00 41 1036.0